DW1282 Weather Reports


Display with metric or nautical units.
time (UTC)temp
F
wind
direction
speed
MPH
gust
MPH
rain 1hr
in
rain 24hr
in
rain mn
in
humidity
%
barometer
mb
20260506094547 54 229 9.0 18.0 0.00 0.00 0.00 91 1016.9
20260506093037 53 233 5.0 18.0 0.00 0.00 0.00 92 1016.8
20260506091533 53 245 6.0 17.0 0.00 0.00 0.00 92 1016.5
20260506090033 53 208 5.0 20.0 0.00 0.00 0.00 92 1016.2
20260506084530 53 234 9.0 21.0 0.00 0.00 0.00 92 1016.1
20260506083028 54 247 9.0 24.0 0.00 0.00 0.00 92 1015.9
20260506081527 54 214 12.0 20.0 0.00 0.00 0.00 91 1015.8
20260506073024 53 226 8.0 17.0 0.00 0.00 0.00 91 1015.9
20260506071523 53 237 7.0 20.0 0.00 0.00 0.00 90 1015.7
20260506061521 53 227 8.0 16.0 0.00 0.00 0.00 89 1016.2
20260506044513 53 237 7.0 22.0 0.00 0.00 0.00 90 1016.1
20260506043011 53 216 7.0 24.0 0.00 0.00 0.00 90 1016.1
20260506041522 52 198 10.0 22.0 0.00 0.00 0.00 90 1016.0
20260506040006 52 220 10.0 20.0 0.00 0.00 0.00 90 1015.9
20260506034506 52 239 7.0 20.0 0.00 0.00 0.00 90 1015.8
20260506033002 52 227 10.0 20.0 0.00 0.00 0.00 91 1015.6
20260506031606 52 188 9.0 20.0 0.00 0.00 0.00 91 1015.5
20260506030054 52 236 10.0 21.0 0.00 0.00 0.00 91 1015.3
20260506024553 52 210 8.0 21.0 0.00 0.00 0.00 91 1015.5
20260506023053 51 208 8.0 20.0 0.00 0.00 0.00 91 1015.5
20260506021556 52 198 10.0 20.0 0.00 0.00 0.00 91 1015.5
20260506020052 52 209 9.0 19.0 0.00 0.00 0.00 91 1015.6
20260506014554 52 202 9.0 21.0 0.00 0.00 0.00 90 1015.4
20260506013048 52 185 11.0 20.0 0.00 0.00 0.00 90 1015.4
20260506011547 53 225 8.0 19.0 0.00 0.00 0.00 89 1015.2
20260506010047 53 229 11.0 21.0 0.00 0.00 0.00 88 1014.8
20260506004545 54 219 9.0 23.0 0.00 0.00 0.00 87 1014.7
20260506003043 54 213 10.0 22.0 0.00 0.00 0.00 85 1014.5
20260506001557 55 230 11.0 25.0 0.00 0.00 0.00 84 1014.2
20260506000044 55 226 9.0 24.0 0.00 0.00 0.00 81 1013.7
20260505234546 56 206 9.0 23.0 0.00 0.00 0.00 77 1013.5
20260505233034 57 203 10.0 23.0 0.00 0.00 0.00 75 1013.3
20260505231532 58 268 9.0 21.0 0.00 0.00 0.00 72 1013.2
20260505230034 59 222 7.0 17.0 0.00 0.00 0.00 68 1012.8
20260505224536 60 223 8.0 17.0 0.00 0.00 0.00 64 1012.8
20260505223039 61 221 8.0 17.0 0.00 0.00 0.00 61 1012.7
20260505221526 62 228 10.0 22.0 0.00 0.00 0.00 58 1012.7
20260505220035 64 212 6.0 24.0 0.00 0.00 0.00 55 1012.3
20260505214539 64 234 12.0 31.0 0.00 0.00 0.00 53 1012.2
20260505213033 65 225 10.0 21.0 0.00 0.00 0.00 52 1012.0
20260505211520 66 207 9.0 27.0 0.00 0.00 0.00 51 1012.3
20260505210019 67 223 10.0 23.0 0.00 0.00 0.00 49 1012.2
20260505204527 67 229 11.0 28.0 0.00 0.00 0.00 48 1012.1
20260505203019 68 227 10.0 32.0 0.00 0.00 0.00 48 1012.2
20260505201518 68 212 15.0 31.0 0.00 0.00 0.00 47 1012.1
20260505200017 69 226 11.0 35.0 0.00 0.00 0.00 47 1012.1
20260505194515 70 212 13.0 34.0 0.00 0.00 0.00 45 1011.7
20260505193034 70 239 11.0 28.0 0.00 0.00 0.00 45 1011.5
20260505191513 71 234 13.0 22.0 0.00 0.00 0.00 45 1011.4
20260505190027 71 224 9.0 25.0 0.00 0.00 0.00 46 1011.3
20260505184515 72 259 6.0 19.0 0.00 0.00 0.00 47 1011.4
20260505183017 71 210 8.0 23.0 0.00 0.00 0.00 48 1011.2
20260505181516 71 186 11.0 21.0 0.00 0.00 0.00 48 1011.4
20260505180017 72 217 7.0 22.0 0.00 0.00 0.00 49 1011.5
20260505174505 71 208 12.0 24.0 0.00 0.00 0.00 48 1011.6
20260505173002 70 231 10.0 18.0 0.00 0.00 0.00 50 1011.5
20260505171600 69 207 12.0 22.0 0.00 0.00 0.00 51 1011.7
20260505170109 69 206 9.0 21.0 0.00 0.00 0.00 53 1011.7
20260505164600 69 195 10.0 18.0 0.00 0.00 0.00 51 1011.8
20260505163107 69 216 9.0 17.0 0.00 0.00 0.00 52 1011.8
20260505161556 68 210 9.0 17.0 0.00 0.00 0.00 54 1011.5
20260505153104 66 212 8.0 14.0 0.00 0.01 0.00 55 1011.7
20260505151547 65 214 8.0 22.0 0.00 0.01 0.00 55 1011.8
20260505124521 56 279 9.0 16.0 0.00 0.01 0.00 64 1011.7
20260505123021 55 231 7.0 13.0 0.00 0.01 0.00 65 1011.6
20260505121513 54 256 6.0 12.0 0.00 0.01 0.00 68 1011.4
20260505120008 53 252 5.0 12.0 0.00 0.01 0.00 72 1011.3
20260505114504 52 239 5.0 17.0 0.00 0.01 0.00 74 1011.3
20260505113100 51 265 7.0 16.0 0.00 0.01 0.00 75 1011.3
20260505111601 51 248 4.0 17.0 0.00 0.01 0.00 77 1011.3
20260505101547 47 235 3.0 14.0 0.00 0.01 0.00 82 1010.5
20260505100044 47 256 7.0 15.0 0.00 0.01 0.00 83 1010.5